SCP
0 0 0 0 0 0 0 0 0 -0 -0 -0 -0 0 -0 -0 -0 0 0 0 0 0 0 0 0 0 0 0 -0 0 0 0 0 0 0 0 0 0 0 0 0 0 0 0 0 0 0 0 0 0 0 0 0 0
0 0 0 0 0 0 0 0 -0 -0 -0 -0 -0 0 0 -0 -0 0 0 0 0 0 0 0 0 0 0 0 0 0 0 0 0 0 0 0 0 0 0 0 0 0 0 0 0 0 0 0 0 0 0 0 0 0
0 0 0 0 0 0 0 0 -0 -0 -0 -0 0 0 0 0 0 0 0 0 0 0 0 -0 -0 0 0 0 0 -0 0 0 0 0 0 0 0 0 0 0 0 0 0 0 0 0 0 0 0 0 0 0 0 0
0 0 0 0 0 0 0 0 0 -0 -0 -0 0 0 0 0 0 0 0 0 0 0 0 -0 0 0 0 0 0 0 0 0 0 0 0 0 0 0 0 0 0 0 0 0 0 0 0 0 0 0 0 0 0 0
0 0 0 0 0 0 0 0 0 -0 -0 -0 0 0 0 0 0 0 0 0 0 0 0 0 -0 0 0 0 0 0 0 0 0 0 0 0 0 0 0 0 0 0 0 0 0 0 0 0 0 0 0 0 0 0
0 0 0 0 0 0 0 0 0 0 -0 0 0 0 0 0 0 0 0 0 0 0 0 0 -0 -0 0 0 0 0 0 0 0 0 0 0 0 0 0 0 0 0 0 0 0 0 0 0 0 0 0 0 0 0
0 0 0 0 0 0 0 0 0 0 0 0 0 0 0 0 0 0 0 0 0 0 0 0 -0 -0 -0 -0 0 0 0 0 0 0 0 0 0 0 0 0 0 0 0 0 0 0 0 0 0 0 0 0 0 0
0 0 0 0 0 0 0 0 0 0 0 0 0 0 0 0 0 0 0 0 0 0 0 -0 -0 -0 -0 -0 -0 0 0 0 0 0 0 0 0 -0 -0 0 -0 -0 0 0 0 0 0 0 0 0 0 0 0 0
0 0 0 -0 0 0 0 0 0 0 0 0 0 0 0 0 0 0 0 0 0 0 0 -0 -0 -0 -0 -0 0 -0 -0 0 -0 0 0 -0 -0 -0 -0 -0 -0 -0 -0 -0 -0 0 0 0 0 0 0 0 0 0
0 0 0 0 0 0 0 0 0 0 0 0 0 0 0 0 0 0 0 0 0 0 0 -0 -0 -0 0 -0 -0 -0 -0 0 0 0 -0 0 0 0 0 -0 -0 -0 -0 -0 -0 -0 0 0 0 0 0 0 0 0
0 0 0 0 0 0 0 0 0 0 0 0 0 0 0 0 0 0 0 0 0 0 -0 -0 -0 0 -0 -0 -0 0 0 -0 0 -0 0 0 0 0 -0 -0 -0 -0 -0 0 0 0 0 0 0 0 0 0 0 0
0 0 0 0 0 0 0 0 0 0 0 0 0 0 0 0 0 0 0 0 0 0 0 -0 -0 0 0 -0 0 -0 0 -0 0 -0 0 0 0 0 -0 -0 -0 -0 -0 -0 0 -0 -0 0 0 0 0 0 0 0
0 0 0 0 0 0 0 0 0 0 0 0 0 0 0 0 0 0 0 0 0 0 0 0 0 0 0 -0 -0 -0 -0 -0 -0 0 0 -0 -0 -0 -0 -0 -0 -0 -0 -0 -0 -0 -0 0 0 0 0 0 0 0
0 0 0 0 0 0 0 0 0 0 0 0 0 0 0 0 0 0 0 0 0 0 0 0 0 0 0 0 0 0 0 0 -0 0 0 0 -0 -0 -0 -0 -0 -0 -0 -0 -0 -0 -0 0 0 0 0 0 0 0
0 0 0 0 0 0 0 0 0 0 0 0 0 0 0 0 0 0 0 0 0 0 0 0 0 0 0 0 0 0 -0 0 0 0 0 0 0 0 -0 -0 -0 -0 -0 -0 -0 0 0 0 0 0 0 0 0 0
0 0 0 0 0 0 0 0 0 0 0 0 0 0 0 0 0 0 0 0 0 0 0 0 0 0 0 0 0 0 0 0 0 0 0 0 0 0 0 -0 -0 -0 0 0 0 0 0 0 0 0 0 0 0 0
0 0 0 0 0 0 0 0 0 0 0 0 0 0 0 0 0 0 0 0 0 0 0 0 0 0 0 0 0 0 0 0 0 0 0 0 0 0 0 0 0 0 0 0 0 0 0 0 0 0 0 0 0 0
0 0 0 0 0 0 0 0 0 0 0 0 0 0 0 0 0 0 0 0 0 0 0 0 0 0 0 0 0 0 0 0 0 0 0 0 0 0 0 0 0 0 0 0 0 0 0 0 0 0 0 0 0 0
-0 0 0 0 0 0 0 0 0 0 0 0 0 0 0 0 0 0 0 0 0 0 0 0 0 0 0 0 0 0 0 0 0 0 0 0 0 0 0 0 0 0 0 0 0 0 0 0 0 0 0 0 0 0
0 0 0 0 0 0 0 0 0 0 0 0 0 0 0 0 0 0 0 0 0 0 0 0 0 0 0 0 0 0 0 0 0 0 0 0 0 0 0 0 0 0 0 0 0 0 0 0 0 0 0 0 0 0
0 -0 0 0 0 0 0 0 0 0 0 0 0 0 0 0 0 0 0 0 0 0 0 0 0 0 0 0 0 0 0 0 0 0 0 0 0 0 0 0 0 0 0 0 0 0 0 0 0 0 0 0 0 0
0 0 0 0 0 0 0 0 0 0 0 0 0 0 0 0 0 0 0 0 0 0 0 0 0 0 0 0 0 0 0 0 0 0 0 0 0 0 0 0 0 0 0 0 0 0 0 0 0 0 0 0 0 0
0 0 0 0 0 0 0 0 0 0 0 0 0 0 0 0 0 0 0 0 0 0 0 0 0 0 0 0 0 0 0 0 0 0 0 0 0 0 0 0 0 0 0 0 0 0 0 0 0 0 0 0 0 0
0 0 0 0 0 0 0 0 0 0 0 -0 0 0 0 0 0 0 0 0 0 0 0 0 0 0 0 0 0 0 0 0 0 0 0 0 0 0 0 0 0 0 0 0 0 0 0 0 0 0 0 0 0 0
0 0 0 0 0 0 0 0 0 0 0 -0 0 0 0 0 0 0 0 0 0 0 0 0 0 0 0 0 0 0 0 0 0 0 0 0 0 0 0 0 0 0 0 0 0 -0 -0 0 0 0 0 0 0 0
0 0 0 -0 -0 0 0 0 0 0 -0 0 0 0 0 0 0 0 0 0 0 0 0 0 0 0 0 0 0 0 0 0 0 0 0 0 0 0 0 0 0 0 0 0 0 0 0 0 0 0 0 0 0 -0
0 0 0 0 0 0 0 0 0 0 0 0 0 0 0 0 0 0 0 0 0 0 0 0 0 0 0 0 0 0 0 0 0 0 0 0 0 0 0 0 0 0 0 0 0 0 -0 -0 -0 -0 0 0 0 0
0 0 0 0 0 0 0 0 0 0 0 0 0 0 0 0 0 0 0 0 0 -0 0 0 0 0 0 0 0 0 0 0 0 0 0 0 0 0 0 0 0 0 0 -0 0 0 -0 0 -0 -0 -0 0 0 0
0 0 0 0 0 0 0 0 0 0 0 0 0 0 0 0 0 0 0 -0 -0 -0 -0 0 0 0 0 0 0 0 0 0 0 0 0 0 0 0 0 0 0 0 -0 -0 -0 -0 -0 -0 -0 -0 -0 0 0 0
-0 -0 0 0 0 0 0 0 0 0 0 0 0 0 0 0 -0 0 0 0 0 0 0 0 0 0 0 0 0 0 0 0 0 0 0 0 0 0 0 0 0 -0 -0 0 0 0 0 0 0 0 -0 0 0 0
0 -0 0 0 0 0 -0 0 0 0 0 0 0 0 0 0 0 0 0 0 0 0 0 0 0 0 0 0 0 0 0 0 0 0 0 0 0 0 0 0 -0 -0 0 -0 0 0 0 0 0 -0 -0 -0 -0 0
0 0 0 0 0 0 -0 0 0 0 0 -0 -0 0 0 0 0 0 0 0 0 0 0 0 0 0 0 0 0 0 0 0 0 0 0 0 0 0 0 0 0 0 0 0 0 0 0 0 0 -0 -0 -0 -0 -0
0 0 0 0 0 0 0 0 0 0 0 0 0 0 0 0 0 0 0 -0 -0 0 0 0 0 0 0 0 0 0 0 0 0 0 0 0 0 0 0 0 0 0 -0 0 0 0 0 0 0 0 0 -0 -0 -0
Wind_Speed_500mb
52 54 56 55 53 50 42 34 22 19 16 12 8 6 5 5 1 3 3 5 9 1 11 7 5 1 3 5 9 9 11 10 9 6 6 3 6 2 7 6 9 11 6 9 7 11 10 32 5 13 14 13 18 12
56 55 55 57 55 49 44 35 26 19 19 15 11 8 8 8 5 6 1 5 15 4 11 13 12 11 8 7 14 4 10 4 6 2 3 3 4 7 7 7 5 6 7 3 8 6 10 16 14 15 12 6 11 8
58 57 56 56 54 50 46 38 29 20 22 18 13 11 10 11 9 8 7 7 12 13 14 15 12 6 7 7 7 10 4 0 3 2 2 1 5 4 6 5 4 8 4 4 12 10 14 18 21 25 16 5 13 14
59 58 56 55 54 46 41 34 29 21 24 20 15 13 11 12 11 11 7 10 15 6 8 11 11 7 8 8 12 4 1 6 7 3 6 5 3 4 1 5 11 7 11 11 9 12 12 17 23 22 23 17 23 16
53 55 54 52 47 44 38 31 25 25 27 22 17 14 12 11 12 13 10 8 19 9 5 11 13 9 7 7 13 13 5 4 8 10 8 2 2 6 4 4 9 11 2 6 4 13 6 13 13 16 17 18 17 22
48 49 47 42 40 41 27 29 21 28 28 22 18 16 13 12 13 14 8 13 14 19 8 8 6 15 11 8 7 10 8 3 3 5 4 4 2 7 4 4 6 6 6 5 10 13 13 14 12 11 13 12 10 14
41 38 33 38 35 27 12 19 21 30 28 21 18 15 12 14 21 12 3 9 20 18 9 8 10 13 17 10 4 1 6 4 2 3 3 3 7 7 4 5 14 15 14 15 16 18 14 10 8 9 10 10 14 14
29 26 31 36 28 18 15 18 25 29 26 20 17 13 12 16 21 9 8 8 18 9 7 6 6 12 19 15 11 4 3 3 4 2 4 4 5 5 6 13 17 22 19 16 14 9 12 12 8 6 6 7 8 11
25 22 29 26 20 19 17 18 25 29 25 21 16 16 14 15 11 13 11 8 17 10 8 9 9 6 14 11 4 6 4 3 3 4 4 5 3 7 13 17 29 31 26 23 20 16 13 10 9 8 8 7 8 8
18 17 15 12 10 10 18 26 28 27 24 21 23 8 10 12 14 13 4 7 12 13 9 13 6 8 15 13 10 5 3 1 4 5 4 8 8 19 13 16 24 28 23 25 24 19 14 12 11 10 9 8 10 9
18 13 6 4 2 6 21 30 29 24 22 22 11 7 11 19 11 8 10 13 15 11 17 22 22 10 10 11 5 4 2 1 5 7 6 5 7 13 22 25 26 28 25 23 16 13 13 13 13 12 13 13 11 9
16 11 7 6 8 11 24 27 25 24 16 15 12 15 15 9 9 10 10 9 11 10 15 24 23 12 11 6 8 8 3 4 5 5 5 5 6 12 25 31 33 30 26 23 19 17 15 13 11 10 9 7 6 4
17 12 12 12 13 20 22 23 22 21 17 18 10 13 10 10 3 12 15 9 9 15 21 24 22 17 9 9 3 7 8 5 2 6 5 10 13 18 25 30 37 34 31 28 25 22 19 18 17 17 17 15 13 11
15 10 14 15 17 19 21 21 23 25 18 7 12 3 11 11 11 10 12 8 8 13 32 36 25 12 8 12 5 7 3 6 6 6 8 9 20 23 28 31 35 41 39 35 30 25 23 22 19 18 19 20 18 16
11 10 10 19 16 16 18 16 20 25 9 8 9 8 14 17 8 9 10 9 12 23 36 28 18 13 11 7 7 4 8 8 8 8 6 9 18 25 31 35 38 39 41 39 34 29 24 21 18 16 16 16 15 11
9 6 5 9 25 23 18 14 11 14 6 8 11 11 11 13 18 17 15 18 19 30 31 24 9 8 10 6 11 13 7 9 5 7 9 9 15 25 32 36 38 38 39 38 35 30 26 21 17 18 17 14 11 10
19 10 11 10 18 17 23 21 10 6 10 9 13 19 19 12 10 12 11 20 26 33 16 13 12 12 7 8 7 7 8 7 6 6 7 15 22 24 30 35 37 38 39 38 36 32 25 20 19 19 16 12 9 6
21 17 18 18 15 13 16 18 12 11 13 19 16 13 15 18 13 9 12 17 26 32 27 14 7 13 10 12 12 11 14 19 20 23 27 23 26 27 32 40 40 41 41 39 36 31 28 25 22 19 18 15 14 16
22 23 22 19 17 14 8 12 11 9 19 15 20 21 17 16 16 17 13 13 18 14 10 11 10 14 17 26 28 30 25 20 21 22 22 27 27 31 32 33 34 41 46 44 39 32 27 26 20 19 21 24 21 18
28 34 29 20 17 11 6 9 13 10 10 5 14 18 19 17 11 15 19 25 24 14 14 11 20 29 25 28 25 27 29 26 22 30 34 29 34 30 36 45 51 42 35 37 36 33 32 26 21 26 27 24 21 17
20 36 31 20 14 14 7 7 11 10 9 12 7 11 16 16 21 25 24 21 20 15 23 30 38 40 34 30 24 27 31 30 34 37 40 35 31 33 35 49 54 49 49 44 41 41 33 26 28 28 28 23 19 15
24 30 27 22 12 8 9 12 8 6 9 10 10 13 14 16 20 23 19 25 20 30 32 33 31 27 25 26 26 25 29 35 33 30 33 33 30 32 41 53 50 54 56 48 45 37 33 25 24 28 27 22 20 16
21 29 17 14 11 12 8 10 12 12 8 7 8 7 9 10 12 13 14 24 32 31 25 24 21 26 25 23 27 28 25 26 27 28 25 23 22 26 37 51 57 62 63 56 39 37 32 28 30 27 27 25 20 17
22 18 9 12 13 7 7 9 12 8 10 12 8 8 8 8 9 11 13 25 23 16 16 16 13 14 19 21 19 20 19 18 22 22 21 20 23 36 38 42 52 50 65 58 56 47 33 37 33 33 30 26 23 19
6 8 8 8 11 7 8 7 9 8 7 10 7 8 5 10 7 7 6 2 10 13 12 9 11 16 17 17 17 17 17 15 15 16 14 12 13 15 25 31 48 55 58 59 51 43 42 36 35 33 34 30 26 22
4 11 12 13 11 10 7 5 6 9 7 7 10 5 7 6 6 4 6 7 4 4 2 6 11 15 20 20 23 22 19 16 15 13 11 12 21 20 23 38 55 61 52 35 44 43 42 40 36 35 33 31 32 25
4 7 10 10 5 8 9 13 10 8 6 4 2 6 6 7 5 5 4 2 1 2 8 13 16 20 24 25 25 21 21 15 13 9 7 13 20 16 12 39 61 44 42 49 37 37 42 41 38 35 33 32 30 28
10 6 13 14 17 14 9 8 6 5 4 0 7 3 1 3 5 3 5 2 5 10 13 14 14 12 13 14 14 10 5 5 4 4 15 21 20 18 16 25 49 28 29 32 34 37 37 36 38 36 35 32 29 26
11 10 12 16 18 12 15 9 8 3 4 2 5 5 7 7 4 1 2 4 10 9 10 7 5 6 8 10 7 5 10 14 16 14 9 14 20 19 23 26 23 20 22 26 33 34 34 36 39 37 34 31 27 25
15 20 14 15 18 11 14 16 7 7 6 9 11 13 10 7 5 4 4 8 10 10 8 2 3 8 9 13 15 15 12 9 8 6 6 11 12 14 26 25 21 15 21 25 24 37 42 42 38 37 33 32 30 27
6 17 20 23 20 23 26 19 19 21 21 19 15 17 14 4 3 4 3 7 9 8 7 2 7 10 12 11 11 10 9 5 5 5 6 1 3 17 27 26 19 17 22 27 27 30 36 41 39 38 38 39 36 34
19 16 13 11 14 17 23 20 22 23 15 13 16 10 7 7 6 1 3 7 7 7 9 5 5 8 10 12 14 9 10 4 1 7 9 8 8 16 25 23 19 18 18 21 25 28 32 37 41 43 42 39 38 36
19 18 16 12 9 10 20 15 11 11 14 7 2 3 4 4 4 3 5 6 5 8 7 5 2 3 7 9 12 15 18 9 11 12 12 16 22 30 26 22 21 19 18 19 20 21 22 25 30 31 33 34 34 34
Wind_Direction_500mb
313 318 319 320 320 319 314 310 296 288 268 270 278 279 274 269 205 80 350 66 144 54 122 108 101 102 210 295 307 55 246 190 221 245 266 170 248 153 268 302 296 272 260 236 263 263 214 4 248 329 355 332 1 32
310 313 314 316 315 314 306 303 291 266 253 244 249 251 246 244 211 172 95 104 129 101 125 135 121 104 66 1 311 235 329 308 357 221 216 174 189 202 236 234 168 225 347 317 332 45 46 34 28 356 325 298 10 44
305 309 309 311 310 308 299 289 288 250 237 228 234 237 234 232 215 192 209 161 136 154 144 164 145 98 64 26 1 296 174 165 210 281 323 142 231 232 223 225 244 153 191 211 178 120 72 42 42 33 28 90 83 85
302 304 307 307 307 306 295 276 274 239 223 216 222 226 223 220 214 196 188 201 175 192 252 147 161 149 98 57 35 32 169 164 148 197 251 253 227 232 196 20 265 43 176 173 106 134 117 65 40 41 54 76 97 96
299 302 305 305 304 303 291 268 259 226 211 205 214 218 210 209 206 191 187 190 193 185 294 141 170 162 139 96 61 63 106 193 211 210 224 177 107 225 205 260 224 189 91 207 123 131 98 79 45 49 64 74 88 113
297 302 304 301 304 311 280 250 246 211 199 197 206 209 198 199 186 155 207 226 191 178 214 205 142 171 167 139 95 73 63 57 238 268 113 133 85 265 255 245 108 161 125 81 122 136 118 115 79 73 79 77 86 110
299 300 305 304 298 306 259 232 222 194 187 191 198 196 199 195 182 189 257 197 190 176 196 221 190 188 187 199 216 247 43 52 345 144 207 199 171 268 278 238 149 155 140 132 128 129 137 166 119 95 107 102 111 123
294 304 312 311 296 261 250 261 190 178 180 185 188 187 176 178 181 192 205 185 182 174 183 246 133 184 195 215 202 211 269 206 53 118 176 223 178 271 245 224 178 166 159 155 145 147 134 145 134 112 104 134 134 134
302 306 317 319 305 230 223 212 174 175 176 176 173 155 147 168 182 204 208 212 195 185 220 229 209 165 173 199 200 188 254 231 154 209 182 230 94 231 225 195 188 181 180 174 168 160 160 176 187 192 204 205 193 170
303 304 313 321 4 214 203 176 174 171 171 169 158 161 182 188 190 176 195 185 187 213 224 248 183 151 196 180 181 220 233 343 259 99 178 214 240 239 213 198 189 188 188 177 177 180 181 162 153 151 158 170 182 196
296 294 308 309 82 134 178 173 167 166 166 160 187 184 180 161 152 185 193 202 184 212 204 221 203 160 189 218 152 246 60 40 250 120 269 236 262 189 190 185 182 183 182 185 192 186 181 170 161 149 143 134 128 125
314 288 261 239 201 166 162 167 169 170 176 187 176 142 147 182 199 209 194 185 222 214 171 189 183 181 149 171 211 184 229 200 256 128 248 255 217 172 180 185 184 185 190 192 195 194 192 192 198 202 203 208 208 197
313 266 234 230 199 173 173 178 179 177 170 161 184 179 186 171 204 210 191 197 209 180 169 162 153 153 137 189 153 200 216 217 124 226 238 234 131 183 190 192 195 194 195 196 199 207 215 222 229 235 240 236 235 248
309 278 223 221 189 176 175 180 180 175 171 200 180 262 218 189 228 207 216 206 162 178 164 168 148 164 147 182 167 220 100 204 240 227 237 189 197 201 196 200 202 206 207 208 211 216 224 230 227 221 224 228 229 238
285 337 225 191 181 176 174 174 178 184 201 228 216 227 215 236 231 222 220 209 186 167 158 152 154 184 156 161 208 162 195 235 227 235 220 195 201 203 203 204 209 210 212 214 217 222 216 210 211 217 200 193 194 209
259 264 251 211 193 174 167 154 162 182 244 240 236 245 224 239 228 203 199 201 168 168 170 175 149 194 190 202 186 205 218 223 203 203 241 214 216 211 211 209 211 211 211 211 210 206 204 205 207 202 194 201 222 231
226 217 191 158 149 165 170 176 216 225 233 230 236 236 254 290 268 185 188 199 175 177 187 181 185 187 137 208 214 201 221 234 207 230 272 250 239 234 228 211 205 201 198 196 194 193 193 191 190 195 207 219 225 219
217 195 192 193 200 181 177 176 188 235 240 239 243 248 225 242 247 218 200 190 180 201 213 213 173 199 208 203 212 204 232 268 275 280 287 272 260 243 230 214 205 196 190 188 188 186 182 181 188 201 203 194 167 151
200 207 196 192 188 179 190 208 212 255 236 246 247 250 247 252 241 230 205 203 201 201 211 206 233 231 240 247 263 275 278 270 276 297 293 279 255 244 228 212 202 191 190 184 181 183 189 185 189 195 185 167 168 169
218 201 194 194 186 184 223 210 203 246 257 241 239 244 237 244 235 227 225 215 207 212 215 224 242 256 254 264 269 271 283 295 289 287 283 264 256 239 234 217 201 183 190 182 182 180 176 178 181 176 175 178 180 177
207 187 188 195 198 210 251 226 224 242 263 244 244 239 243 226 236 226 218 197 196 219 229 237 247 258 269 277 276 277 277 279 276 276 278 279 246 239 235 204 192 188 193 190 181 176 179 181 175 175 182 182 185 192
180 184 182 184 192 212 253 230 247 254 245 261 255 240 251 234 230 219 207 206 233 232 234 254 262 267 271 276 279 275 277 281 279 273 271 263 242 228 200 194 193 194 179 190 173 184 177 180 178 183 187 189 192 200
165 169 164 180 194 205 251 212 228 214 234 219 209 227 222 220 221 180 224 229 242 242 239 246 253 268 273 281 287 286 281 276 275 274 271 262 246 217 196 197 201 188 180 185 174 183 174 195 188 187 189 187 195 205
150 170 169 183 200 224 215 224 218 231 218 217 227 238 224 211 178 220 239 237 236 222 229 239 247 262 282 281 281 290 290 286 284 279 268 250 233 226 220 209 203 189 190 176 174 185 196 192 191 186 190 195 200 207
155 182 184 212 202 220 234 226 215 217 242 213 235 238 187 196 212 222 237 254 229 222 211 226 256 267 268 281 296 303 292 286 291 288 268 232 217 192 201 199 185 179 174 172 182 191 195 192 191 195 198 202 204 208
212 192 194 197 186 212 216 246 224 222 254 236 218 190 191 215 234 172 166 112 168 181 251 283 278 274 275 281 290 295 291 284 281 273 252 212 198 196 198 177 174 178 171 180 186 194 195 196 197 198 201 203 207 211
248 195 206 220 258 265 242 247 247 256 227 270 330 202 210 221 114 17 6 32 339 298 309 305 293 284 283 286 281 282 281 280 257 251 231 188 160 149 185 185 174 166 177 177 190 194 197 201 201 202 204 205 206 212
238 238 225 197 212 224 276 279 232 230 241 122 262 242 248 29 80 14 345 322 307 314 316 314 309 304 298 289 294 286 295 295 282 228 154 156 169 174 160 185 184 181 180 197 198 199 203 203 203 203 202 203 205 209
224 212 222 236 228 223 217 229 260 192 230 327 322 331 19 8 329 323 338 352 342 333 332 339 353 31 54 73 96 96 118 113 120 138 132 156 161 166 168 171 180 190 197 198 202 195 204 205 202 200 200 203 207 211
231 211 224 220 221 224 222 209 252 235 280 303 298 293 299 318 310 114 43 353 342 333 329 315 157 135 117 115 108 109 112 122 129 121 124 166 192 184 177 175 179 189 190 186 193 197 196 195 198 200 205 208 214 219
216 202 225 237 241 237 237 243 245 255 270 276 270 280 293 252 199 242 317 339 346 348 355 323 190 178 175 156 138 124 117 134 154 153 158 135 215 191 190 190 197 194 189 192 197 196 199 200 206 211 217 222 226 227
200 213 216 221 242 234 223 236 239 243 239 245 255 232 197 191 156 47 327 17 15 4 6 50 182 202 192 195 195 183 152 131 272 277 261 258 221 178 176 179 178 176 178 188 198 207 210 212 220 225 227 227 228 226
193 195 217 261 245 206 193 199 214 231 224 235 210 88 107 124 67 86 22 65 74 47 46 49 90 184 216 202 212 218 222 245 285 265 258 224 195 187 187 189 187 186 191 193 199 203 207 213 215 216 217 218 218 219
Wind_Speed_850mb
52 54 56 55 53 50 42 34 22 19 16 12 8 6 5 5 1 3 3 5 9 1 11 7 5 1 3 5 9 9 11 10 9 6 6 3 6 2 7 6 9 11 6 9 7 11 10 32 5 13 14 13 18 12
56 55 55 57 55 49 44 35 26 19 19 15 11 8 8 8 5 6 1 5 15 4 11 13 12 11 8 7 14 4 10 4 6 2 3 3 4 7 7 7 5 6 7 3 8 6 10 16 14 15 12 6 11 8
58 57 56 56 54 50 46 38 29 20 22 18 13 11 10 11 9 8 7 7 12 13 14 15 12 6 7 7 7 10 4 0 3 2 2 1 5 4 6 5 4 8 4 4 12 10 14 18 21 25 16 5 13 14
59 58 56 55 54 46 41 34 29 21 24 20 15 13 11 12 11 11 7 10 15 6 8 11 11 7 8 8 12 4 1 6 7 3 6 5 3 4 1 5 11 7 11 11 9 12 12 17 23 22 23 17 23 16
53 55 54 52 47 44 38 31 25 25 27 22 17 14 12 11 12 13 10 8 19 9 5 11 13 9 7 7 13 13 5 4 8 10 8 2 2 6 4 4 9 11 2 6 4 13 6 13 13 16 17 18 17 22
48 49 47 42 40 41 27 29 21 28 28 22 18 16 13 12 13 14 8 13 14 19 8 8 6 15 11 8 7 10 8 3 3 5 4 4 2 7 4 4 6 6 6 5 10 13 13 14 12 11 13 12 10 14
41 38 33 38 35 27 12 19 21 30 28 21 18 15 12 14 21 12 3 9 20 18 9 8 10 13 17 10 4 1 6 4 2 3 3 3 7 7 4 5 14 15 14 15 16 18 14 10 8 9 10 10 14 14
29 26 31 36 28 18 15 18 25 29 26 20 17 13 12 16 21 9 8 8 18 9 7 6 6 12 19 15 11 4 3 3 4 2 4 4 5 5 6 13 17 22 19 16 14 9 12 12 8 6 6 7 8 11
25 22 29 26 20 19 17 18 25 29 25 21 16 16 14 15 11 13 11 8 17 10 8 9 9 6 14 11 4 6 4 3 3 4 4 5 3 7 13 17 29 31 26 23 20 16 13 10 9 8 8 7 8 8
18 17 15 12 10 10 18 26 28 27 24 21 23 8 10 12 14 13 4 7 12 13 9 13 6 8 15 13 10 5 3 1 4 5 4 8 8 19 13 16 24 28 23 25 24 19 14 12 11 10 9 8 10 9
18 13 6 4 2 6 21 30 29 24 22 22 11 7 11 19 11 8 10 13 15 11 17 22 22 10 10 11 5 4 2 1 5 7 6 5 7 13 22 25 26 28 25 23 16 13 13 13 13 12 13 13 11 9
16 11 7 6 8 11 24 27 25 24 16 15 12 15 15 9 9 10 10 9 11 10 15 24 23 12 11 6 8 8 3 4 5 5 5 5 6 12 25 31 33 30 26 23 19 17 15 13 11 10 9 7 6 4
17 12 12 12 13 20 22 23 22 21 17 18 10 13 10 10 3 12 15 9 9 15 21 24 22 17 9 9 3 7 8 5 2 6 5 10 13 18 25 30 37 34 31 28 25 22 19 18 17 17 17 15 13 11
15 10 14 15 17 19 21 21 23 25 18 7 12 3 11 11 11 10 12 8 8 13 32 36 25 12 8 12 5 7 3 6 6 6 8 9 20 23 28 31 35 41 39 35 30 25 23 22 19 18 19 20 18 16
11 10 10 19 16 16 18 16 20 25 9 8 9 8 14 17 8 9 10 9 12 23 36 28 18 13 11 7 7 4 8 8 8 8 6 9 18 25 31 35 38 39 41 39 34 29 24 21 18 16 16 16 15 11
9 6 5 9 25 23 18 14 11 14 6 8 11 11 11 13 18 17 15 18 19 30 31 24 9 8 10 6 11 13 7 9 5 7 9 9 15 25 32 36 38 38 39 38 35 30 26 21 17 18 17 14 11 10
19 10 11 10 18 17 23 21 10 6 10 9 13 19 19 12 10 12 11 20 26 33 16 13 12 12 7 8 7 7 8 7 6 6 7 15 22 24 30 35 37 38 39 38 36 32 25 20 19 19 16 12 9 6
21 17 18 18 15 13 16 18 12 11 13 19 16 13 15 18 13 9 12 17 26 32 27 14 7 13 10 12 12 11 14 19 20 23 27 23 26 27 32 40 40 41 41 39 36 31 28 25 22 19 18 15 14 16
22 23 22 19 17 14 8 12 11 9 19 15 20 21 17 16 16 17 13 13 18 14 10 11 10 14 17 26 28 30 25 20 21 22 22 27 27 31 32 33 34 41 46 44 39 32 27 26 20 19 21 24 21 18
28 34 29 20 17 11 6 9 13 10 10 5 14 18 19 17 11 15 19 25 24 14 14 11 20 29 25 28 25 27 29 26 22 30 34 29 34 30 36 45 51 42 35 37 36 33 32 26 21 26 27 24 21 17
20 36 31 20 14 14 7 7 11 10 9 12 7 11 16 16 21 25 24 21 20 15 23 30 38 40 34 30 24 27 31 30 34 37 40 35 31 33 35 49 54 49 49 44 41 41 33 26 28 28 28 23 19 15
24 30 27 22 12 8 9 12 8 6 9 10 10 13 14 16 20 23 19 25 20 30 32 33 31 27 25 26 26 25 29 35 33 30 33 33 30 32 41 53 50 54 56 48 45 37 33 25 24 28 27 22 20 16
21 29 17 14 11 12 8 10 12 12 8 7 8 7 9 10 12 13 14 24 32 31 25 24 21 26 25 23 27 28 25 26 27 28 25 23 22 26 37 51 57 62 63 56 39 37 32 28 30 27 27 25 20 17
22 18 9 12 13 7 7 9 12 8 10 12 8 8 8 8 9 11 13 25 23 16 16 16 13 14 19 21 19 20 19 18 22 22 21 20 23 36 38 42 52 50 65 58 56 47 33 37 33 33 30 26 23 19
6 8 8 8 11 7 8 7 9 8 7 10 7 8 5 10 7 7 6 2 10 13 12 9 11 16 17 17 17 17 17 15 15 16 14 12 13 15 25 31 48 55 58 59 51 43 42 36 35 33 34 30 26 22
4 11 12 13 11 10 7 5 6 9 7 7 10 5 7 6 6 4 6 7 4 4 2 6 11 15 20 20 23 22 19 16 15 13 11 12 21 20 23 38 55 61 52 35 44 43 42 40 36 35 33 31 32 25
4 7 10 10 5 8 9 13 10 8 6 4 2 6 6 7 5 5 4 2 1 2 8 13 16 20 24 25 25 21 21 15 13 9 7 13 20 16 12 39 61 44 42 49 37 37 42 41 38 35 33 32 30 28
10 6 13 14 17 14 9 8 6 5 4 0 7 3 1 3 5 3 5 2 5 10 13 14 14 12 13 14 14 10 5 5 4 4 15 21 20 18 16 25 49 28 29 32 34 37 37 36 38 36 35 32 29 26
11 10 12 16 18 12 15 9 8 3 4 2 5 5 7 7 4 1 2 4 10 9 10 7 5 6 8 10 7 5 10 14 16 14 9 14 20 19 23 26 23 20 22 26 33 34 34 36 39 37 34 31 27 25
15 20 14 15 18 11 14 16 7 7 6 9 11 13 10 7 5 4 4 8 10 10 8 2 3 8 9 13 15 15 12 9 8 6 6 11 12 14 26 25 21 15 21 25 24 37 42 42 38 37 33 32 30 27
6 17 20 23 20 23 26 19 19 21 21 19 15 17 14 4 3 4 3 7 9 8 7 2 7 10 12 11 11 10 9 5 5 5 6 1 3 17 27 26 19 17 22 27 27 30 36 41 39 38 38 39 36 34
19 16 13 11 14 17 23 20 22 23 15 13 16 10 7 7 6 1 3 7 7 7 9 5 5 8 10 12 14 9 10 4 1 7 9 8 8 16 25 23 19 18 18 21 25 28 32 37 41 43 42 39 38 36
19 18 16 12 9 10 20 15 11 11 14 7 2 3 4 4 4 3 5 6 5 8 7 5 2 3 7 9 12 15 18 9 11 12 12 16 22 30 26 22 21 19 18 19 20 21 22 25 30 31 33 34 34 34
Wind_Direction_850mb
313 318 319 320 320 319 314 310 296 288 268 270 278 279 274 269 205 80 350 66 144 54 122 108 101 102 210 295 307 55 246 190 221 245 266 170 248 153 268 302 296 272 260 236 263 263 214 4 248 329 355 332 1 32
310 313 314 316 315 314 306 303 291 266 253 244 249 251 246 244 211 172 95 104 129 101 125 135 121 104 66 1 311 235 329 308 357 221 216 174 189 202 236 234 168 225 347 317 332 45 46 34 28 356 325 298 10 44
305 309 309 311 310 308 299 289 288 250 237 228 234 237 234 232 215 192 209 161 136 154 144 164 145 98 64 26 1 296 174 165 210 281 323 142 231 232 223 225 244 153 191 211 178 120 72 42 42 33 28 90 83 85
302 304 307 307 307 306 295 276 274 239 223 216 222 226 223 220 214 196 188 201 175 192 252 147 161 149 98 57 35 32 169 164 148 197 251 253 227 232 196 20 265 43 176 173 106 134 117 65 40 41 54 76 97 96
299 302 305 305 304 303 291 268 259 226 211 205 214 218 210 209 206 191 187 190 193 185 294 141 170 162 139 96 61 63 106 193 211 210 224 177 107 225 205 260 224 189 91 207 123 131 98 79 45 49 64 74 88 113
297 302 304 301 304 311 280 250 246 211 199 197 206 209 198 199 186 155 207 226 191 178 214 205 142 171 167 139 95 73 63 57 238 268 113 133 85 265 255 245 108 161 125 81 122 136 118 115 79 73 79 77 86 110
299 300 305 304 298 306 259 232 222 194 187 191 198 196 199 195 182 189 257 197 190 176 196 221 190 188 187 199 216 247 43 52 345 144 207 199 171 268 278 238 149 155 140 132 128 129 137 166 119 95 107 102 111 123
294 304 312 311 296 261 250 261 190 178 180 185 188 187 176 178 181 192 205 185 182 174 183 246 133 184 195 215 202 211 269 206 53 118 176 223 178 271 245 224 178 166 159 155 145 147 134 145 134 112 104 134 134 134
302 306 317 319 305 230 223 212 174 175 176 176 173 155 147 168 182 204 208 212 195 185 220 229 209 165 173 199 200 188 254 231 154 209 182 230 94 231 225 195 188 181 180 174 168 160 160 176 187 192 204 205 193 170
303 304 313 321 4 214 203 176 174 171 171 169 158 161 182 188 190 176 195 185 187 213 224 248 183 151 196 180 181 220 233 343 259 99 178 214 240 239 213 198 189 188 188 177 177 180 181 162 153 151 158 170 182 196
296 294 308 309 82 134 178 173 167 166 166 160 187 184 180 161 152 185 193 202 184 212 204 221 203 160 189 218 152 246 60 40 250 120 269 236 262 189 190 185 182 183 182 185 192 186 181 170 161 149 143 134 128 125
314 288 261 239 201 166 162 167 169 170 176 187 176 142 147 182 199 209 194 185 222 214 171 189 183 181 149 171 211 184 229 200 256 128 248 255 217 172 180 185 184 185 190 192 195 194 192 192 198 202 203 208 208 197
313 266 234 230 199 173 173 178 179 177 170 161 184 179 186 171 204 210 191 197 209 180 169 162 153 153 137 189 153 200 216 217 124 226 238 234 131 183 190 192 195 194 195 196 199 207 215 222 229 235 240 236 235 248
309 278 223 221 189 176 175 180 180 175 171 200 180 262 218 189 228 207 216 206 162 178 164 168 148 164 147 182 167 220 100 204 240 227 237 189 197 201 196 200 202 206 207 208 211 216 224 230 227 221 224 228 229 238
285 337 225 191 181 176 174 174 178 184 201 228 216 227 215 236 231 222 220 209 186 167 158 152 154 184 156 161 208 162 195 235 227 235 220 195 201 203 203 204 209 210 212 214 217 222 216 210 211 217 200 193 194 209
259 264 251 211 193 174 167 154 162 182 244 240 236 245 224 239 228 203 199 201 168 168 170 175 149 194 190 202 186 205 218 223 203 203 241 214 216 211 211 209 211 211 211 211 210 206 204 205 207 202 194 201 222 231
226 217 191 158 149 165 170 176 216 225 233 230 236 236 254 290 268 185 188 199 175 177 187 181 185 187 137 208 214 201 221 234 207 230 272 250 239 234 228 211 205 201 198 196 194 193 193 191 190 195 207 219 225 219
217 195 192 193 200 181 177 176 188 235 240 239 243 248 225 242 247 218 200 190 180 201 213 213 173 199 208 203 212 204 232 268 275 280 287 272 260 243 230 214 205 196 190 188 188 186 182 181 188 201 203 194 167 151
200 207 196 192 188 179 190 208 212 255 236 246 247 250 247 252 241 230 205 203 201 201 211 206 233 231 240 247 263 275 278 270 276 297 293 279 255 244 228 212 202 191 190 184 181 183 189 185 189 195 185 167 168 169
218 201 194 194 186 184 223 210 203 246 257 241 239 244 237 244 235 227 225 215 207 212 215 224 242 256 254 264 269 271 283 295 289 287 283 264 256 239 234 217 201 183 190 182 182 180 176 178 181 176 175 178 180 177
207 187 188 195 198 210 251 226 224 242 263 244 244 239 243 226 236 226 218 197 196 219 229 237 247 258 269 277 276 277 277 279 276 276 278 279 246 239 235 204 192 188 193 190 181 176 179 181 175 175 182 182 185 192
180 184 182 184 192 212 253 230 247 254 245 261 255 240 251 234 230 219 207 206 233 232 234 254 262 267 271 276 279 275 277 281 279 273 271 263 242 228 200 194 193 194 179 190 173 184 177 180 178 183 187 189 192 200
165 169 164 180 194 205 251 212 228 214 234 219 209 227 222 220 221 180 224 229 242 242 239 246 253 268 273 281 287 286 281 276 275 274 271 262 246 217 196 197 201 188 180 185 174 183 174 195 188 187 189 187 195 205
150 170 169 183 200 224 215 224 218 231 218 217 227 238 224 211 178 220 239 237 236 222 229 239 247 262 282 281 281 290 290 286 284 279 268 250 233 226 220 209 203 189 190 176 174 185 196 192 191 186 190 195 200 207
155 182 184 212 202 220 234 226 215 217 242 213 235 238 187 196 212 222 237 254 229 222 211 226 256 267 268 281 296 303 292 286 291 288 268 232 217 192 201 199 185 179 174 172 182 191 195 192 191 195 198 202 204 208
212 192 194 197 186 212 216 246 224 222 254 236 218 190 191 215 234 172 166 112 168 181 251 283 278 274 275 281 290 295 291 284 281 273 252 212 198 196 198 177 174 178 171 180 186 194 195 196 197 198 201 203 207 211
248 195 206 220 258 265 242 247 247 256 227 270 330 202 210 221 114 17 6 32 339 298 309 305 293 284 283 286 281 282 281 280 257 251 231 188 160 149 185 185 174 166 177 177 190 194 197 201 201 202 204 205 206 212
238 238 225 197 212 224 276 279 232 230 241 122 262 242 248 29 80 14 345 322 307 314 316 314 309 304 298 289 294 286 295 295 282 228 154 156 169 174 160 185 184 181 180 197 198 199 203 203 203 203 202 203 205 209
224 212 222 236 228 223 217 229 260 192 230 327 322 331 19 8 329 323 338 352 342 333 332 339 353 31 54 73 96 96 118 113 120 138 132 156 161 166 168 171 180 190 197 198 202 195 204 205 202 200 200 203 207 211
231 211 224 220 221 224 222 209 252 235 280 303 298 293 299 318 310 114 43 353 342 333 329 315 157 135 117 115 108 109 112 122 129 121 124 166 192 184 177 175 179 189 190 186 193 197 196 195 198 200 205 208 214 219
216 202 225 237 241 237 237 243 245 255 270 276 270 280 293 252 199 242 317 339 346 348 355 323 190 178 175 156 138 124 117 134 154 153 158 135 215 191 190 190 197 194 189 192 197 196 199 200 206 211 217 222 226 227
200 213 216 221 242 234 223 236 239 243 239 245 255 232 197 191 156 47 327 17 15 4 6 50 182 202 192 195 195 183 152 131 272 277 261 258 221 178 176 179 178 176 178 188 198 207 210 212 220 225 227 227 228 226
193 195 217 261 245 206 193 199 214 231 224 235 210 88 107 124 67 86 22 65 74 47 46 49 90 184 216 202 212 218 222 245 285 265 258 224 195 187 187 189 187 186 191 193 199 203 207 213 215 216 217 218 218 219